FW5819 Weather Reports


time (UTC)temp
C
wind
direction
speed
KPH
gust
KPH
rain 1hr
cm
rain 24hr
cm
rain mn
cm
humidity
%
barometer
mb
20260506103037 6 0 0.0 0.0 0.00 2.97 0.41 96 1008.6
20260506101536 6 0 0.0 4.8 0.03 2.97 0.41 95 1008.5
20260506100032 6 293 1.6 3.2 0.03 2.97 0.41 95 1009.1
20260506094531 6 321 0.0 3.2 0.03 2.97 0.41 95 1008.0
20260506093038 6 0 0.0 0.0 0.03 2.97 0.41 95 1008.1
20260506091547 6 0 0.0 0.0 0.03 2.95 0.38 95 1008.7
20260506090039 6 0 0.0 0.0 0.05 2.95 0.38 95 1009.0
20260506084538 6 257 0.0 3.2 0.08 2.95 0.38 95 1009.0
20260506083036 7 302 0.0 1.6 0.13 2.95 0.38 95 1008.6
20260506081534 7 0 0.0 1.6 0.13 2.95 0.36 95 1008.3
20260506073032 7 65 0.0 3.2 0.10 2.84 0.25 95 1008.7
20260506071532 7 0 0.0 3.2 0.08 2.82 0.23 95 1008.4
20260506061536 7 0 0.0 0.0 0.05 2.72 0.13 95 1008.2
20260506044541 7 0 0.0 0.0 0.08 2.64 0.05 95 1008.7
20260506043035 7 0 0.0 1.6 0.08 2.62 0.03 95 1008.9
20260506041547 7 0 0.0 0.0 0.08 2.59 0.00 95 1009.1
20260506040040 7 0 0.0 0.0 0.13 2.59 0.00 95 1009.1
20260506034536 7 0 0.0 1.6 0.15 2.57 2.57 95 1009.4
20260506033035 8 0 0.0 0.0 0.20 2.54 2.54 94 1009.5
20260506031535 8 300 3.2 8.0 0.25 2.51 2.51 95 1009.6
20260506030035 8 0 0.0 3.2 0.33 2.46 2.46 95 1009.5
20260506024540 8 0 0.0 1.6 0.38 2.41 2.41 95 1009.7
20260506023036 8 0 0.0 3.2 0.33 2.34 2.34 95 1009.7
20260506021546 9 314 0.0 3.2 0.28 2.26 2.26 95 1009.4
20260506020035 9 55 1.6 6.4 0.15 2.11 2.11 95 1009.2
20260506014532 9 12 1.6 4.8 0.10 2.03 2.03 95 1009.0
20260506013034 9 0 0.0 0.0 0.08 2.01 2.01 95 1008.9
20260506011558 9 0 0.0 0.0 0.10 1.98 1.98 95 1008.7
20260506010034 9 0 0.0 0.0 0.13 1.96 1.96 95 1008.8
20260506004541 9 0 0.0 0.0 0.15 1.93 1.93 95 1008.9
20260506003035 9 0 0.0 3.2 0.23 1.93 1.93 94 1008.8
20260506001535 9 0 0.0 4.8 0.18 1.88 1.88 94 1008.8
20260506000030 9 42 1.6 4.8 0.15 1.83 1.83 94 1008.4
20260505234534 9 320 0.0 3.2 0.13 1.78 1.78 94 1008.1
20260505233036 9 321 1.6 3.2 0.20 1.70 1.70 94 1008.2
20260505231540 9 38 0.0 8.0 0.30 1.70 1.70 94 1008.3
20260505230035 9 34 1.6 6.4 0.36 1.68 1.68 94 1008.3
20260505224532 9 327 3.2 8.0 0.41 1.63 1.63 93 1009.0
20260505223035 10 33 3.2 8.0 0.38 1.47 1.47 93 1008.8
20260505221534 10 299 1.6 9.7 0.33 1.40 1.40 93 1009.0
20260505220052 10 330 4.8 11.3 0.33 1.32 1.32 93 1008.5
20260505214539 10 340 0.0 4.8 0.30 1.22 1.22 93 1008.2
20260505213038 11 342 0.0 4.8 0.28 1.12 1.12 93 1007.8
20260505211538 11 46 4.8 14.5 0.30 1.07 1.07 92 1007.8
20260505210039 11 328 3.2 16.1 0.30 0.97 0.97 92 1007.9
20260505204532 12 36 6.4 14.5 0.30 0.91 0.91 92 1007.9
20260505203035 13 52 6.4 19.3 0.25 0.84 0.84 91 1007.8
20260505201538 13 0 1.6 6.4 0.38 0.76 0.76 91 1007.9
20260505200035 13 304 1.6 9.7 0.53 0.66 0.66 91 1007.9
20260505194532 13 278 0.0 3.2 0.53 0.61 0.61 90 1007.9
20260505193035 13 314 1.6 4.8 0.56 0.58 0.58 88 1007.9
20260505191536 14 0 0.0 9.7 0.38 0.38 0.38 86 1008.1
20260505190035 15 0 0.0 1.6 0.13 0.13 0.13 84 1008.0
20260505184532 15 0 1.6 4.8 0.05 0.05 0.05 83 1007.9
20260505183045 15 246 3.2 12.9 0.00 0.00 0.00 80 1008.1
20260505181533 16 219 8.0 17.7 0.00 0.00 0.00 78 1007.9
20260505180035 16 213 8.0 24.1 0.00 0.00 0.00 76 1007.8
20260505174535 16 299 4.8 20.9 0.00 0.00 0.00 75 1007.8
20260505173035 17 242 4.8 17.7 0.00 0.00 0.00 74 1007.7
20260505171532 17 281 9.7 19.3 0.00 0.00 0.00 74 1007.6
20260505170031 17 5 6.4 19.3 0.00 0.00 0.00 74 1007.7
20260505164553 17 277 4.8 22.5 0.00 0.00 0.00 74 1007.8
20260505163036 17 333 4.8 20.9 0.00 0.00 0.00 73 1007.7
20260505161547 17 293 9.7 22.5 0.00 0.00 0.00 71 1007.5
20260505153040 19 344 8.0 20.9 0.00 0.00 0.00 66 1007.1
20260505151536 19 227 6.4 22.5 0.00 0.00 0.00 67 1006.4
20260505124544 16 54 8.0 24.1 0.00 0.00 0.00 74 1006.0
20260505123032 16 243 8.0 22.5 0.00 0.00 0.00 74 1005.9
20260505121536 16 230 8.0 32.2 0.00 0.00 0.00 73 1005.7
20260505120047 16 291 4.8 19.3 0.00 0.00 0.00 74 1005.3
20260505114534 16 201 1.6 11.3 0.00 0.00 0.00 74 1004.8
20260505113034 16 234 1.6 11.3 0.00 0.00 0.00 73 1004.2
20260505111537 16 41 6.4 19.3 0.00 0.00 0.00 72 1004.1